Tracking 19706 objects as of 16-Jun-2019
HD Live streaming from Space Station
objects crossing your sky now

GAOFEN 3 DEB

Track GAOFEN 3 DEB now!
10-day predictions


NORAD ID: 42678
Int'l Code: 2016-049C
Perigee: 742.2 km
Apogee: 754.0 km
Inclination: 98.4 °
Period: 99.6 minutes
Semi major axis: 7119 km
RCS: Unknown
Launch date: August 9, 2016
Source: People's Republic of China (PRC)
Launch site: Jiuquan Satellite Launch Center, China (JSC)

Note: This is SATELLITE DEBRIS
aabbcc
Your satellite tracking list
Your tracking list is empty




NASA's NSSDC Master Catalog

Two Line Element Set (TLE):
1 42678U 16049C   19165.26526953  .00000007  00000-0  14483-4 0  9998
2 42678  98.3997 177.5038 0008343 193.3684 166.7287 14.45323504144026
Source of the keplerian elements: AFSPC